Showing default

AETHER-8, 67379

Orbit data source: Space-Track

AETHER-8, 67379 is a payload satellite owned by Kepler Comms (CA) in SSO that was launched on Sun, 11 Jan 2026 UTC via an FALCON 9 launch vehicle from the Air Force Western Test Range (AFWTR). Payload-class satellites include a variety of spacecraft equipped with specific instruments for various scientific and technological missions. These include communications satellites like Starlink; space stations such as the ISS; scientific satellites like the Hubble; Earth observation satellites from companies like Planet Labs, Umbra, and HawkEye 360; GPS; miniature CubeSats for education and research; and military/defense satellites.

Loading next visibility...
Identifier
67379, 2026-004S
Orbit
SSO
Country
Flag of CACA
Related business
Manufacturer
Kepler Comms
Mission
Operational spacecraft
Bus & Motor
KEPLER GEN2B, Unknown motor
Mass
300 kg wet, 300 kg dry
Launch date (UTC)
2026-01-11 (3 months ago)
Launch vehicle
FALCON 9
Launch site
Air Force Western Test Range (AFWTR)
Object type
Payload
Rocket body
Debris
Shape & HBR
Unknown shape, 7.6 m
Radar Cross Section
RCS unknown

Expand to show TLE details & history
Last TLE update: 6 hours ago

TLE from 6 hours ago
0 AETHER-8
1 67379U 26004S   26095.54915603  .00001287  00000-0  14658-3 0  9994
2 67379  97.8020  95.3125 0006031  27.5657 332.5878 14.87874035 12485
Epoch: 2026-04-05T13:10Z
TLE epoch observation values (Epoch: 2026-04-05T13:10:47.080Z)
Latitude
-0.00002°
Longitude
63.76335°
Altitude
603.876 km
Speed
7.56 km/s
True Right ascension
06h 21m 15s
True Declination
0° 00' 00"
Sunlit
Object was in daylight at epoch
Visualization orbit readout
Latitude
Unknown
Longitude
Unknown
Altitude
Unknown
Speed
Unknown
Apparent Right ascension
Unknown
Apparent Declination
Unknown
Sunlit
N/A
Visualization observer readout
Local Sidereal Time
01:31:54
Azimuth
Unknown
Elevation
Unknown
Doppler factor
Unknown
Orbital elements
Apogee altitude
605.815 km
Perigee altitude
597.396 km
Semi-major axis
6,979.742 km
Eccentricity
0.0006
Inclination
97.802°
RAAN
95.3125°
Arg. of periapsis
27.5657°
True anomaly
332.55596°
Mean anomaly
332.5878°
Eccentric anomaly
332.57188°
Mean motion
3.72207 °/min
Orbital period
96.72 mins
BSTAR
0.00014658
Loading maneuver chart data...
Computing Atmospheric mass density...
Loading historical data...
Loading historical data...
Loading historical data...
Loading historical data...
Loading historical data...
Loading historical data...
Loading historical data...

Documentation

Showing up to 5 results
|